• In Hungary
  • List of Countries
  • For 7 days
  • Water Temperature
  • Satellite Maps
  • Weather Map
  • News
  • Weather Widgets
  • user-avatar
    Login

    Hourly Weather Langar

    Today, 16 October, Tuesday

    Time Temperature Precipitation Wind Pressure Humidity
    00:00 -2°C° 0 mm 2 mps 609 mmHg 55%
    01:00 -3°C° 0 mm 2 mps 609 mmHg 55%
    02:00 -3°C° 0 mm 2 mps 609 mmHg 54%
    03:00 -3°C° 0 mm 2 mps 608 mmHg 54%
    04:00 -4°C° 0 mm 2 mps 608 mmHg 52%
    05:00 -4°C° 0 mm 2 mps 608 mmHg 51%
    06:00 -4°C° 0 mm 2 mps 609 mmHg 49%
    07:00 -3°C° 0 mm 2 mps 609 mmHg 48%
    08:00 -4°C° 0 mm 3 mps 610 mmHg 46%
    09:00 -3°C° 0 mm 4 mps 610 mmHg 45%
    10:00 -3°C° 0 mm 4 mps 610 mmHg 43%
    11:00 -4°C° 0 mm 5 mps 610 mmHg 42%
    12:00 -2°C° 0 mm 5 mps 610 mmHg 41%
    13:00 -3°C° 0 mm 6 mps 611 mmHg 41%
    14:00 -2°C° 0.1 mm 5 mps 611 mmHg 41%
    15:00 -4°C° 0.1 mm 5 mps 611 mmHg 40%
    16:00 -4°C° 0 mm 4 mps 611 mmHg 41%
    17:00 -4°C° 0 mm 4 mps 611 mmHg 43%
    18:00 -5°C° 0 mm 3 mps 612 mmHg 45%
    19:00 -5°C° 0 mm 3 mps 612 mmHg 47%
    20:00 -5°C° 0 mm 2 mps 612 mmHg 49%
    21:00 -5°C° 0 mm 2 mps 612 mmHg 52%
    22:00 -5°C° 0 mm 2 mps 612 mmHg 54%
    23:00 -6°C° 0 mm 2 mps 612 mmHg 55%

    Tomorrow, 17 October, Wednesday

    Time Temperature Precipitation Wind Pressure Humidity
    00:00 -6°C° 0 mm 2 mps 612 mmHg 57%
    01:00 -6°C° 0 mm 1 mps 612 mmHg 58%
    02:00 -7°C° 0 mm 2 mps 612 mmHg 59%
    03:00 -7°C° 0 mm 2 mps 613 mmHg 60%
    04:00 -7°C° 0 mm 2 mps 613 mmHg 61%
    05:00 -7°C° 0 mm 2 mps 613 mmHg 59%
    06:00 -7°C° 0 mm 2 mps 613 mmHg 58%
    07:00 -7°C° 0 mm 2 mps 614 mmHg 57%
    08:00 -5°C° 0 mm 2 mps 614 mmHg 51%
    09:00 -4°C° 0 mm 2 mps 615 mmHg 45%
    10:00 -1°C° 0 mm 1 mps 615 mmHg 39%
    11:00 0°C° 0 mm 1 mps 615 mmHg 36%
    12:00 +1°C° 0 mm 1 mps 615 mmHg 32%
    13:00 +1°C° 0 mm 0 mps 615 mmHg 29%
    14:00 +2°C° 0 mm 1 mps 615 mmHg 28%
    15:00 +2°C° 0 mm 1 mps 615 mmHg 28%
    16:00 +2°C° 0 mm 1 mps 614 mmHg 28%
    17:00 +1°C° 0 mm 2 mps 614 mmHg 31%
    18:00 -1°C° 0 mm 2 mps 614 mmHg 35%
    19:00 -2°C° 0 mm 3 mps 613 mmHg 38%
    20:00 -4°C° 0 mm 3 mps 613 mmHg 41%
    21:00 -4°C° 0 mm 3 mps 613 mmHg 44%
    22:00 -5°C° 0 mm 3 mps 612 mmHg 48%
    23:00 -5°C° 0 mm 3 mps 612 mmHg 49%

    Day after tomorrow, 18 October, Thursday

    Time Temperature Precipitation Wind Pressure Humidity
    00:00 -5°C° 0 mm 3 mps 612 mmHg 50%
    01:00 -5°C° 0 mm 3 mps 611 mmHg 51%
    02:00 -5°C° 0 mm 2 mps 611 mmHg 50%
    03:00 -5°C° 0 mm 2 mps 611 mmHg 49%
    04:00 -5°C° 0 mm 2 mps 610 mmHg 48%
    05:00 -4°C° 0 mm 2 mps 610 mmHg 45%
    06:00 -4°C° 0 mm 2 mps 611 mmHg 43%
    07:00 -3°C° 0 mm 2 mps 611 mmHg 41%
    08:00 -2°C° 0 mm 2 mps 611 mmHg 36%
    09:00 +1°C° 0 mm 2 mps 612 mmHg 31%
    10:00 +2°C° 0 mm 2 mps 612 mmHg 26%
    11:00 +3°C° 0 mm 2 mps 612 mmHg 24%
    12:00 +3°C° 0 mm 3 mps 612 mmHg 22%
    13:00 +4°C° 0 mm 3 mps 612 mmHg 20%
    14:00 +3°C° 0 mm 3 mps 612 mmHg 20%
    15:00 +3°C° 0 mm 3 mps 612 mmHg 20%
    16:00 +3°C° 0 mm 3 mps 612 mmHg 20%
    17:00 +3°C° 0 mm 2 mps 611 mmHg 22%
    18:00 +2°C° 0 mm 2 mps 611 mmHg 24%
    19:00 +1°C° 0 mm 2 mps 611 mmHg 26%
    20:00 +1°C° 0 mm 1 mps 611 mmHg 28%
    21:00 +1°C° 0 mm 1 mps 610 mmHg 29%
    22:00 0°C° 0 mm 1 mps 610 mmHg 30%
    23:00 0°C° 0 mm 1 mps 610 mmHg 31%

    19 October, Friday

    Time Temperature Precipitation Wind Pressure Humidity
    00:00 -1°C° 0 mm 1 mps 610 mmHg 31%
    01:00 -1°C° 0 mm 1 mps 610 mmHg 31%
    02:00 -1°C° 0 mm 1 mps 610 mmHg 32%
    03:00 -2°C° 0 mm 1 mps 610 mmHg 33%
    04:00 -3°C° 0 mm 0 mps 610 mmHg 33%
    05:00 -2°C° 0 mm 0 mps 610 mmHg 32%
    06:00 -2°C° 0 mm 0 mps 611 mmHg 31%
    07:00 -1°C° 0 mm 0 mps 611 mmHg 30%
    08:00 +1°C° 0 mm 0 mps 612 mmHg 27%
    09:00 +2°C° 0 mm 0 mps 613 mmHg 23%
    10:00 +4°C° 0 mm 0 mps 614 mmHg 20%
    11:00 +5°C° 0 mm 1 mps 614 mmHg 19%
    12:00 +6°C° 0 mm 1 mps 614 mmHg 19%
    13:00 +7°C° 0 mm 1 mps 614 mmHg 18%
    14:00 +7°C° 0 mm 1 mps 614 mmHg 19%
    15:00 +6°C° 0 mm 2 mps 614 mmHg 20%
    16:00 +6°C° 0 mm 2 mps 614 mmHg 20%
    17:00 +5°C° 0 mm 2 mps 614 mmHg 23%
    18:00 +4°C° 0 mm 2 mps 613 mmHg 26%
    19:00 +2°C° 0 mm 2 mps 613 mmHg 28%
    20:00 +2°C° 0 mm 2 mps 613 mmHg 29%
    21:00 +2°C° 0 mm 2 mps 613 mmHg 30%
    22:00 +1°C° 0 mm 2 mps 613 mmHg 31%
    23:00 +1°C° 0 mm 2 mps 613 mmHg 30%

    20 October, Saturday

    Time Temperature Precipitation Wind Pressure Humidity
    00:00 +1°C° 0 mm 2 mps 612 mmHg 30%
    01:00 +1°C° 0 mm 2 mps 612 mmHg 30%
    02:00 -1°C° 0 mm 2 mps 612 mmHg 30%
    03:00 -1°C° 0 mm 2 mps 612 mmHg 31%
    04:00 -1°C° 0 mm 2 mps 612 mmHg 31%
    05:00 -1°C° 0 mm 2 mps 612 mmHg 31%
    06:00 +1°C° 0 mm 2 mps 612 mmHg 31%
    07:00 +1°C° 0 mm 2 mps 613 mmHg 30%
    08:00 +3°C° 0 mm 2 mps 614 mmHg 28%
    09:00 +4°C° 0 mm 3 mps 614 mmHg 25%
    10:00 +7°C° 0 mm 3 mps 615 mmHg 23%
    11:00 +8°C° 0 mm 2 mps 615 mmHg 22%
    12:00 +8°C° 0 mm 2 mps 615 mmHg 21%
    13:00 +9°C° 0 mm 2 mps 615 mmHg 20%
    14:00 +9°C° 0 mm 2 mps 615 mmHg 21%
    15:00 +9°C° 0 mm 2 mps 615 mmHg 22%
    16:00 +9°C° 0 mm 3 mps 615 mmHg 22%
    17:00 +7°C° 0 mm 3 mps 614 mmHg 25%
    18:00 +5°C° 0 mm 3 mps 614 mmHg 28%
    19:00 +4°C° 0 mm 3 mps 613 mmHg 30%
    20:00 +3°C° 0 mm 3 mps 613 mmHg 32%
    21:00 +3°C° 0 mm 3 mps 613 mmHg 33%
    22:00 +2°C° 0 mm 3 mps 613 mmHg 34%
    23:00 +2°C° 0 mm 3 mps 612 mmHg 34%

    21 October, Sunday

    Time Temperature Precipitation Wind Pressure Humidity
    00:00 +2°C° 0 mm 3 mps 612 mmHg 35%
    01:00 +1°C° 0 mm 3 mps 612 mmHg 36%
    02:00 +1°C° 0 mm 3 mps 611 mmHg 36%
    03:00 +2°C° 0 mm 2 mps 611 mmHg 36%
    04:00 +2°C° 0 mm 2 mps 611 mmHg 36%
    05:00 +2°C° 0 mm 2 mps 611 mmHg 35%
    06:00 +3°C° 0 mm 2 mps 612 mmHg 34%
    07:00 +3°C° 0 mm 2 mps 612 mmHg 34%
    08:00 +5°C° 0 mm 2 mps 613 mmHg 30%
    09:00 +7°C° 0 mm 2 mps 614 mmHg 26%
    10:00 +10°C° 0 mm 1 mps 614 mmHg 22%
    11:00 +11°C° 0 mm 1 mps 614 mmHg 21%
    12:00 +12°C° 0 mm 1 mps 614 mmHg 19%
    13:00 +13°C° 0 mm 1 mps 614 mmHg 18%
    14:00 +12°C° 0 mm 1 mps 614 mmHg 18%
    15:00 +12°C° 0 mm 1 mps 614 mmHg 19%
    16:00 +12°C° 0 mm 1 mps 614 mmHg 19%
    17:00 +10°C° 0 mm 1 mps 613 mmHg 22%
    18:00 +9°C° 0 mm 1 mps 613 mmHg 25%
    19:00 +7°C° 0 mm 1 mps 612 mmHg 27%
    20:00 +7°C° 0 mm 1 mps 612 mmHg 28%
    21:00 +6°C° 0 mm 1 mps 612 mmHg 28%
    22:00 +6°C° 0 mm 1 mps 612 mmHg 29%
    23:00 +6°C° 0 mm 1 mps 611 mmHg 29%
    Show more